Norman, Oklahoma, United States (73019)
Lat: 35.22N, Lon: 97.44W
Wx Zone: OKZ029
Local Info
Past Weather Observations for Today

NOTE: This archive is for the closest National Weather Service station to Norman. Information may differ from the station used for current weather conditions.

Click here for Long-term Archive

Time Weather Temperature Dewpoint Humidity Pressure Winds Precip Visibility
21:35
Overcast
37°F / 3°C 37°F / 3°C 100% 30.24 in
(1024 mb)
Calm - 10SM
21:15
Overcast
37°F / 3°C 37°F / 3°C 100% 30.24 in
(1024 mb)
Calm - 10SM
20:50
Overcast
37°F / 3°C 37°F / 3°C 100% 30.24 in
(1024 mb)
Calm - 10SM
20:35
Overcast
37°F / 3°C 37°F / 3°C 100% 30.24 in
(1024 mb)
Calm - 10SM
20:15
Overcast
37°F / 3°C 37°F / 3°C 100% 30.24 in
(1024 mb)
Calm - 10SM
19:55
Overcast
37°F / 3°C 37°F / 3°C 100% 30.21 in
(1023 mb)
Calm - 10SM
19:35
Overcast
37°F / 3°C 37°F / 3°C 100% 30.21 in
(1023 mb)
Calm - 10SM
19:15
Overcast
37°F / 3°C 37°F / 3°C 100% 30.21 in
(1023 mb)
ENE 4.6 mph
(ENE 7 kph)
- 10SM
18:50
Overcast
39°F / 4°C 39°F / 4°C 100% 30.21 in
(1023 mb)
ENE 4.6 mph
(ENE 7 kph)
- 10SM
18:35
Overcast
39°F / 4°C 39°F / 4°C 100% 30.21 in
(1023 mb)
ENE 3.5 mph
(ENE 6 kph)
- 10SM
18:15
Overcast
39°F / 4°C 39°F / 4°C 100% 30.21 in
(1023 mb)
NE 3.5 mph
(NE 6 kph)
- 10SM
17:55
Overcast
39°F / 4°C 39°F / 4°C 100% 30.21 in
(1023 mb)
NE 3.5 mph
(NE 6 kph)
- 10SM
17:35
Overcast
39°F / 4°C 39°F / 4°C 100% 30.21 in
(1023 mb)
NE 3.5 mph
(NE 6 kph)
- 10SM
17:15
Overcast
39°F / 4°C 39°F / 4°C 100% 30.21 in
(1023 mb)
ENE 3.5 mph
(ENE 6 kph)
- 10SM
16:55
Overcast
39°F / 4°C 39°F / 4°C 100% 30.18 in
(1022 mb)
NE 3.5 mph
(NE 6 kph)
- 10SM
16:35
Overcast
39°F / 4°C 39°F / 4°C 100% 30.18 in
(1022 mb)
NE 3.5 mph
(NE 6 kph)
- 10SM
16:15
Overcast
41°F / 5°C 41°F / 5°C 100% 30.18 in
(1022 mb)
NE 3.5 mph
(NE 6 kph)
- 10SM
15:55
Overcast
41°F / 5°C 41°F / 5°C 100% 30.18 in
(1022 mb)
NE 3.5 mph
(NE 6 kph)
- 10SM
15:35
Overcast
41°F / 5°C 41°F / 5°C 100% 30.18 in
(1022 mb)
NNE 3.5 mph
(NNE 6 kph)
- 10SM
15:15
Overcast
41°F / 5°C 41°F / 5°C 100% 30.21 in
(1023 mb)
NE 4.6 mph
(NE 7 kph)
- 10SM
14:55
Overcast
41°F / 5°C 41°F / 5°C 100% 30.18 in
(1022 mb)
NNE 6.9 mph
(NNE 11 kph)
- 10SM
14:35
Overcast
41°F / 5°C 41°F / 5°C 100% 30.18 in
(1022 mb)
NNE 4.6 mph
(NNE 7 kph)
- 10SM
14:15
Overcast
41°F / 5°C 39°F / 4°C 93% 30.18 in
(1022 mb)
N 5.8 mph
(N 9 kph)
- 10SM
13:55
Overcast
41°F / 5°C 41°F / 5°C 100% 30.18 in
(1022 mb)
NNW 4.6 mph
(NNW 7 kph)
- 10SM
13:35
Overcast
39°F / 4°C 39°F / 4°C 100% 30.18 in
(1022 mb)
NNW 4.6 mph
(NNW 7 kph)
- 10SM
13:15
Overcast
39°F / 4°C 39°F / 4°C 100% 30.21 in
(1023 mb)
N 6.9 mph
(N 11 kph)
- 10SM
12:55
Overcast
39°F / 4°C 39°F / 4°C 100% 30.21 in
(1023 mb)
NNE 4.6 mph
(NNE 7 kph)
- 10SM
12:35
Overcast
39°F / 4°C 39°F / 4°C 100% 30.21 in
(1023 mb)
NNE 6.9 mph
(NNE 11 kph)
- 10SM
12:15
Overcast
39°F / 4°C 39°F / 4°C 100% 30.21 in
(1023 mb)
NNE 5.8 mph
(NNE 9 kph)
- 10SM
11:55
Overcast
39°F / 4°C 39°F / 4°C 100% 30.24 in
(1024 mb)
NNE 9.2 mph
(NNE 15 kph)
- 10SM
11:35
Overcast
39°F / 4°C 39°F / 4°C 100% 30.24 in
(1024 mb)
NE 6.9 mph
(NE 11 kph)
- 10SM
11:15
Overcast
37°F / 3°C 37°F / 3°C 100% 30.24 in
(1024 mb)
N 8.1 mph
(N 13 kph)
- 10SM
10:55
Overcast
Fog And Mist
37°F / 3°C 37°F / 3°C 100% 30.27 in
(1025 mb)
NNE 5.8 mph
(NNE 9 kph)
- 5SM
10:35
Overcast
Fog And Mist
37°F / 3°C 37°F / 3°C 100% 30.27 in
(1025 mb)
NE 5.8 mph
(NE 9 kph)
- 5SM
10:15
Overcast
Fog And Mist
37°F / 3°C 37°F / 3°C 100% 30.27 in
(1025 mb)
NE 5.8 mph
(NE 9 kph)
- 5SM
09:55
Overcast
Fog And Mist
37°F / 3°C 37°F / 3°C 100% 30.27 in
(1025 mb)
NE 4.6 mph
(NE 7 kph)
- 4SM
09:35
Overcast
Fog And Mist
37°F / 3°C 37°F / 3°C 100% 30.27 in
(1025 mb)
NNE 4.6 mph
(NNE 7 kph)
- 4SM
09:15
Overcast
Fog And Mist
37°F / 3°C 37°F / 3°C 100% 30.24 in
(1024 mb)
N 4.6 mph
(N 7 kph)
- 3SM
08:55
Overcast
Fog And Mist
37°F / 3°C 37°F / 3°C 100% 30.24 in
(1024 mb)
N 5.8 mph
(N 9 kph)
- 2 1/2SM
08:35
Overcast
Fog And Mist
36°F / 2°C 36°F / 2°C 100% 30.24 in
(1024 mb)
N 4.6 mph
(N 7 kph)
- 2 1/2SM
08:10
Overcast
Fog And Mist
37°F / 3°C 37°F / 3°C 100% 30.24 in
(1024 mb)
NE 5.8 mph
(NE 9 kph)
- 1SM
07:55
Overcast
Fog And Mist
37°F / 3°C 37°F / 3°C 100% 30.24 in
(1024 mb)
NNE 4.6 mph
(NNE 7 kph)
- 1 1/2SM
07:35
Overcast
Fog And Mist
37°F / 3°C 37°F / 3°C 100% 30.24 in
(1024 mb)
NNE 4.6 mph
(NNE 7 kph)
- 2 1/2SM
07:15
Overcast
Fog And Mist
37°F / 3°C 37°F / 3°C 100% 30.24 in
(1024 mb)
NE 4.6 mph
(NE 7 kph)
- 2 1/2SM
06:55
Overcast
Fog And Mist
37°F / 3°C 37°F / 3°C 100% 30.24 in
(1024 mb)
NNE 3.5 mph
(NNE 6 kph)
- 3SM
06:35
Overcast
Fog And Mist
37°F / 3°C 37°F / 3°C 100% 30.21 in
(1023 mb)
NE 5.8 mph
(NE 9 kph)
- 2 1/2SM
06:15
Overcast
Fog And Mist
37°F / 3°C 37°F / 3°C 100% 30.24 in
(1024 mb)
N 4.6 mph
(N 7 kph)
- 5SM
05:50
Overcast
Fog And Mist
37°F / 3°C 37°F / 3°C 100% 30.21 in
(1023 mb)
NE 4.6 mph
(NE 7 kph)
- 5SM
05:35
Overcast
Fog And Mist
37°F / 3°C 37°F / 3°C 100% 30.21 in
(1023 mb)
NE 6.9 mph
(NE 11 kph)
- 5SM
05:15
Overcast
Fog And Mist
37°F / 3°C 37°F / 3°C 100% 30.18 in
(1022 mb)
NE 4.6 mph
(NE 7 kph)
- 5SM
04:55
Overcast
Fog And Mist
37°F / 3°C 37°F / 3°C 100% 30.18 in
(1022 mb)
NNE 6.9 mph
(NNE 11 kph)
- 5SM
04:35
Overcast
Fog And Mist
37°F / 3°C 37°F / 3°C 100% 30.18 in
(1022 mb)
NE 6.9 mph
(NE 11 kph)
- 4SM
04:15
Overcast
Fog And Mist
37°F / 3°C 37°F / 3°C 100% 30.18 in
(1022 mb)
NNE 6.9 mph
(NNE 11 kph)
- 2 1/2SM
03:55
Overcast
Fog And Mist
37°F / 3°C 37°F / 3°C 100% 30.18 in
(1022 mb)
NE 6.9 mph
(NE 11 kph)
- 5SM
03:35
Overcast
Fog And Mist
37°F / 3°C 37°F / 3°C 100% 30.18 in
(1022 mb)
NNE 8.1 mph
(NNE 13 kph)
- 3SM
03:15
Overcast
Fog And Mist
37°F / 3°C 37°F / 3°C 100% 30.18 in
(1022 mb)
N 9.2 mph
(N 15 kph)
- 2 1/2SM
02:55
Overcast
Fog And Mist
37°F / 3°C 37°F / 3°C 100% 30.18 in
(1022 mb)
NNE 6.9 mph
(NNE 11 kph)
- 4SM
02:30
Overcast
Fog And Mist
37°F / 3°C 37°F / 3°C 100% 30.18 in
(1022 mb)
N 6.9 mph
(N 11 kph)
- 2SM
02:15
Overcast
Fog And Mist
37°F / 3°C 37°F / 3°C 100% 30.21 in
(1023 mb)
NE 5.8 mph
(NE 9 kph)
- 3SM
01:55
Overcast
Fog And Mist
37°F / 3°C 37°F / 3°C 100% 30.21 in
(1023 mb)
NE 4.6 mph
(NE 7 kph)
- 4SM
01:35
Overcast
Fog And Mist
37°F / 3°C 37°F / 3°C 100% 30.21 in
(1023 mb)
NNE 3.5 mph
(NNE 6 kph)
- 2 1/2SM
01:15
Overcast
Fog And Mist
37°F / 3°C 37°F / 3°C 100% 30.21 in
(1023 mb)
Calm - 2 1/2SM
00:55
Overcast
Fog And Mist
37°F / 3°C 37°F / 3°C 100% 30.21 in
(1023 mb)
Calm - 1 3/4SM
00:35
Overcast
Fog And Mist
37°F / 3°C 37°F / 3°C 100% 30.21 in
(1023 mb)
NE 3.5 mph
(NE 6 kph)
- 1 3/4SM
00:15
Overcast
Fog And Mist
37°F / 3°C 37°F / 3°C 100% 30.21 in
(1023 mb)
NE 3.5 mph
(NE 6 kph)
- 1 1/2SM
Time Weather Temperature Dewpoint Humidity Pressure Winds Precip Visibility


Weather for websites

WeatherForYou.com, LLC is not responsible for any damages or problems caused by this service. Current weather conditions are obtained from the closest station including government and personal stations which may have varying degrees of accuracy. Weather forecasts are derived from the NOAA NDFD. Like all things, this site belongs to Jesus Christ... He just trusts me to maintain it. If you have any questions or comments email webmaster@weatherforyou.com

Copyright © 2014, WeatherForYou.com LLC. All rights reserved.